{"data":{"norad_id":59303,"epoch":"2026-09-21T06:20:54.650688Z","epoch_age_seconds":96205,"freshness":"FRESH","line1":"1 59303U 24056H   26264.26452142 -.00000030  00000+0  84219-5 0  9995","line2":"2 59303  43.0009 206.3167 0001002 272.5182  87.5555 15.27578255141067","mean_motion":15.27578255,"eccentricity":0.0001002,"inclination_deg":43.0009,"raan_deg":206.3167,"arg_perigee_deg":272.5182,"mean_anomaly_deg":87.5555,"bstar":8.4219e-6,"rev_number":14106,"period_min":94.266856397481,"perigee_km":482.366829832,"apogee_km":483.74181257277,"semimajor_km":6861.1913212024,"source":"CELESTRAK","updated_at":"2026-09-22T09:00:48.876250Z"}}